#timestamp,LO_Frequency,Hit 
1498662015.2,286046965.5,N
1498662035.1,286046962.9,N
1498662036.0,286046962.9,N
1498662055.8,286046963.0,N
1498662075.6,286046963.2,N
1498662095.5,286046963.0,N
1498662115.3,286046963.6,N
1498662135.1,286046963.8,N
1498662155.8,286046963.9,N
1498662175.7,286046961.8,N
1498662195.5,286046963.6,N
1498662215.3,286046963.2,N
1498662235.2,286046963.5,N
1498662255.9,286046963.8,N
1498662275.7,286046963.5,N
1498662295.6,286046964.3,N
1498662315.4,286046961.7,N
1498662335.2,286046961.8,N
1498662355.1,286046961.4,N
1498662356.0,286046961.4,N
1498662375.8,286046962.1,N
1498662395.6,286046962.8,N
1498662415.5,286046962.5,N
1498662435.3,286046962.1,N
1498662455.1,286046961.9,N
1498662475.8,286046962.8,N
1498662495.7,286046962.3,N
1498662515.5,286046959.9,N
1498662535.3,286046959.9,N
1498662555.2,286046962.3,N
1498662575.9,286046960.2,N
1498662595.7,286046959.9,N
1498662615.6,286046959.8,N
1498662635.4,286046960.0,N
1498662655.2,286046960.9,N
1498662675.1,286046960.4,N
1498662676.0,286046960.4,N
1498662695.8,286046960.6,N
1498662715.6,286046960.9,N
1498662735.5,286046958.1,N
1498662755.3,286046960.8,N
1498662775.1,286046961.1,N
1498662795.9,286046959.1,N
1498662815.7,286046958.1,N
1498662835.5,286046958.3,N
1498662855.3,286046958.5,N
1498662875.2,286046959.3,N
1498662895.0,286046957.0,N
1498662895.9,286046957.0,N
1498662915.7,286046957.2,N
1498662935.6,286046959.4,N
1498662955.4,286046956.5,N
1498662975.2,286046959.2,N
1498662995.1,286046956.9,N
1498662996.0,286046956.9,N
1498663015.8,286046956.7,N
1498663035.6,286046956.7,N
1498663055.5,286046959.4,N
1498663075.3,286046959.2,N
1498663095.1,286046959.2,N
1498663115.9,286046959.2,N
1498663135.7,286046959.3,N
1498663155.5,286046956.9,N
1498663175.4,286046956.9,N
1498663195.2,286046956.8,N
1498663215.0,286046957.7,N
1498663215.9,286046957.7,N
1498663235.8,286046957.6,N
1498663255.6,286046957.4,N
1498663275.4,286046957.1,N
1498663295.2,286046956.8,N
1498663315.1,286046959.1,N
1498663316.0,286046959.1,N
1498663335.8,286046959.5,N
1498663355.6,286046957.3,N
1498663375.5,286046956.6,N
1498663395.3,286046957.6,N
1498663415.1,286046957.9,N
1498663435.9,286046957.0,N
1498663455.7,286046957.7,N
1498663475.5,286046959.2,N
1498663495.4,286046959.2,N
1498663515.2,286046959.4,N
1498663535.0,286046959.0,N
1498663535.9,286046959.0,N
1498663555.8,286046960.7,N
1498663575.6,286046958.2,N
1498663595.4,286046961.2,N
1498663615.3,286046958.3,N
1498663635.1,286046961.1,N
1498663636.0,286046961.1,N
1498663655.8,286046961.1,N
1498663675.6,286046958.1,N
1498663695.5,286046961.0,N
1498663715.3,286046960.7,N
1498663735.1,286046960.5,N
1498663755.9,286046958.6,N
1498663775.7,286046960.6,N
1498663795.5,286046960.7,N
1498663815.4,286046960.0,N
1498663835.2,286046960.3,N
1498663855.0,286046960.8,N
1498663855.9,286046960.8,N
1498663875.8,286046960.0,N
1498663895.6,286046962.4,N
1498663915.4,286046960.1,N
1498663935.3,286046960.4,N
1498663955.1,286046959.8,N
1498663956.0,286046959.8,N
1498663975.8,286046960.0,N
1498663995.7,286046960.5,N
1498664015.5,286046958.1,N
1498664035.3,286046961.6,N
1498664055.2,286046962.5,N
1498664075.9,286046960.1,N
1498664095.7,286046959.7,N
1498664115.5,286046959.9,N
1498664135.4,286046959.8,N
1498664155.2,286046960.1,N
1498664175.0,286046962.3,N
1498664175.9,286046962.3,N
1498664195.8,286046962.4,N
1498664215.6,286046964.0,N
1498664235.4,286046964.2,N
1498664255.3,286046961.9,N
1498664275.1,286046961.9,N
1498664295.8,286046963.7,N
1498664315.7,286046964.4,N
1498664335.5,286046963.1,N
1498664355.3,286046963.7,N
1498664375.2,286046964.0,N
1498664395.9,286046964.0,N
1498664415.7,286046964.4,N
1498664435.6,286046961.9,N
1498664455.4,286046962.6,N
1498664475.2,286046959.7,N
1498664495.0,286046964.3,N
1498664495.9,286046964.3,N
1498664515.8,286046964.0,N
1498664535.6,286046961.6,N
1498664555.4,286046961.6,N
1498664575.3,286046961.3,N
1498664595.1,286046962.4,N
1498664615.8,286046961.6,N
1498664635.7,286046964.2,N
1498664655.5,286046961.4,N
1498664675.3,286046963.8,N
1498664695.2,286046963.8,N
1498664715.9,286046963.1,N
1498664735.7,286046964.1,N
1498664755.6,286046964.0,N
1498664775.4,286046965.9,N
1498664795.2,286046963.6,N
1498664815.0,286046963.5,N
1498664815.9,286046963.5,N
1498664835.8,286046962.1,N
1498664855.6,286046963.8,N
1498664875.4,286046963.0,N
1498664895.3,286046966.0,N
1498664915.1,286046963.0,N
1498664935.8,286046965.9,N
1498664955.7,286046963.3,N
1498664975.5,286046963.0,N
1498664995.3,286046964.9,N
1498665015.2,286046965.6,N
1498665035.9,286046963.0,N
1498665055.7,286046963.4,N
1498665075.6,286046966.0,N
1498665095.4,286046965.8,N
1498665115.2,286046963.3,N
1498665135.0,286046965.2,N
1498665136.0,286046965.2,N
1498665155.8,286046964.6,N
1498665175.6,286046967.4,N
1498665195.4,286046967.6,N
1498665215.3,286046967.6,N
1498665235.1,286046967.1,N
1498665255.8,286046967.5,N
1498665275.7,286046964.9,N
1498665295.5,286046964.8,N
1498665315.3,286046967.5,N
1498665335.2,286046964.5,N
1498665355.9,286046964.9,N
1498665375.7,286046964.5,N
1498665395.6,286046965.5,N
1498665415.4,286046964.8,N
1498665435.2,286046964.5,N
1498665455.1,286046964.6,N
1498665456.0,286046964.6,N
1498665475.8,286046967.3,N
1498665495.6,286046967.5,N
1498665515.4,286046967.1,N
1498665535.3,286046967.2,N
1498665555.1,286046964.6,N
1498665575.8,286046967.3,N
1498665595.7,286046966.3,N
